OK6FS-6 Weather Reports


Display with metric or nautical units.
time (UTC)temp
F
wind
direction
speed
MPH
gust
MPH
rain 1hr
in
rain 24hr
in
rain mn
in
humidity
%
barometer
mb
20260503223049 61 31 2.0 3.0 0.00 0.00 0.00 45 1017.5
20260503221834 61 37 1.0 2.0 0.00 0.00 0.00 44 1017.5
20260503220631 62 29 1.0 2.0 0.00 0.00 0.00 44 1017.7
20260503215458 62 28 0.0 1.0 0.00 0.00 0.00 44 1017.7
20260503214225 62 7 1.0 2.0 0.00 0.00 0.00 44 1017.8
20260503213033 62 41 1.0 3.0 0.00 0.00 0.00 44 1017.7
20260503211920 62 32 1.0 2.0 0.00 0.00 0.00 43 1017.7
20260503210627 62 40 2.0 3.0 0.00 0.00 0.00 43 1017.8
20260503205434 63 42 2.0 4.0 0.00 0.00 0.00 43 1017.7
20260503204251 63 52 1.0 2.0 0.00 0.00 0.00 43 1017.8
20260503203029 64 20 2.0 3.0 0.00 0.00 0.00 43 1017.9
20260503201856 64 46 1.0 3.0 0.00 0.00 0.00 43 1018.0
20260503200633 65 41 2.0 4.0 0.00 0.00 0.00 43 1017.9
20260503195501 65 22 2.0 3.0 0.00 0.00 0.00 43 1017.9
20260503194228 65 44 1.0 3.0 0.00 0.00 0.00 43 1018.0
20260503193035 66 41 2.0 3.0 0.00 0.00 0.00 43 1018.1
20260503191833 66 39 2.0 4.0 0.00 0.00 0.00 43 1018.0
20260503190649 67 49 3.0 4.0 0.00 0.00 0.00 43 1017.9
20260503185436 68 42 2.0 3.0 0.00 0.00 0.00 42 1017.9
20260503184244 69 41 2.0 3.0 0.00 0.00 0.00 41 1017.7
20260503183041 70 37 1.0 3.0 0.00 0.00 0.00 40 1017.6
20260503181828 70 32 1.0 2.0 0.00 0.00 0.00 40 1017.5
20260503180625 71 59 1.0 4.0 0.00 0.00 0.00 39 1017.5
20260503175432 71 111 2.0 4.0 0.00 0.00 0.00 39 1017.5
20260503174229 72 76 2.0 5.0 0.00 0.00 0.00 38 1017.4
20260503173026 72 43 2.0 4.0 0.00 0.00 0.00 38 1017.3
20260503171834 73 80 5.0 7.0 0.00 0.00 0.00 37 1017.3
20260503170632 74 45 4.0 6.0 0.00 0.00 0.00 37 1017.3
20260503150629 77 82 6.0 8.0 0.00 0.00 0.00 35 1017.8
20260503130633 77 87 5.0 7.0 0.00 0.00 0.00 35 1019.2
20260503110629 75 295 5.0 7.0 0.00 0.00 0.00 34 1020.8
20260503080644 73 167 5.0 10.0 0.00 0.00 0.00 31 1022.3
20260503071830 72 54 3.0 6.0 0.00 0.00 0.00 33 1022.2
20260503070638 71 178 3.0 6.0 0.00 0.00 0.00 35 1022.2
20260503054237 55 34 1.0 1.0 0.00 0.00 0.00 58 1022.0
20260503053033 54 44 1.0 2.0 0.00 0.00 0.00 59 1021.9
20260503051821 52 16 0.0 2.0 0.00 0.00 0.00 62 1022.0
20260503050656 51 12 0.0 1.0 0.00 0.00 0.00 67 1022.0
20260503045423 49 15 0.0 1.0 0.00 0.00 0.00 71 1022.0
20260503044229 48 0.0 0.0 0.00 0.00 0.00 70 1022.0
20260503043035 48 8 0.0 0.0 0.00 0.00 0.00 69 1021.9
20260503041922 47 0.0 0.0 0.00 0.00 0.00 70 1021.9
20260503040629 47 271 0.0 1.0 0.00 0.00 0.00 69 1021.9
20260503035435 48 0.0 0.0 0.00 0.00 0.00 64 1021.7
20260503034252 49 15 1.0 2.0 0.00 0.00 0.00 64 1021.7
20260503033029 48 19 1.0 1.0 0.00 0.00 0.00 66 1021.6
20260503031837 47 0.0 0.0 0.00 0.00 0.00 67 1021.6
20260503030624 47 0.0 0.0 0.00 0.00 0.00 66 1021.7
20260503025431 48 0.0 0.0 0.00 0.00 0.00 63 1021.6
20260503024228 48 29 1.0 3.0 0.00 0.00 0.00 64 1021.5
20260503023036 47 0.0 0.0 0.00 0.00 0.00 64 1021.5
20260503021903 47 0.0 0.0 0.00 0.00 0.00 65 1021.4
20260503020630 47 0.0 0.0 0.00 0.00 0.00 65 1021.4
20260503015437 47 0.0 0.0 0.00 0.00 0.00 65 1021.6
20260503014224 48 0.0 0.0 0.00 0.00 0.00 63 1021.5
20260503013051 48 0.0 0.0 0.00 0.00 0.00 62 1021.4
20260503011839 48 0.0 0.0 0.00 0.00 0.00 62 1021.5
20260503010646 49 0.0 0.0 0.00 0.00 0.00 61 1021.5
20260503005453 49 0.0 0.0 0.00 0.00 0.00 62 1021.6
20260503004300 48 0.0 0.0 0.00 0.00 0.00 62 1021.5
20260503003027 48 0.0 0.0 0.00 0.00 0.00 63 1021.5
20260503001855 49 0.0 0.0 0.00 0.00 0.00 60 1021.5
20260503000622 49 0.0 0.0 0.00 0.00 0.00 59 1021.6
20260502235430 50 0.0 0.0 0.00 0.00 0.00 59 1021.6
20260502234258 50 0.0 0.0 0.00 0.00 0.00 59 1021.6
20260502233035 50 0.0 0.0 0.00 0.00 0.00 59 1021.7
20260502231832 50 282 1.0 2.0 0.00 0.00 0.00 58 1021.7
20260502230639 52 0.0 0.0 0.00 0.00 0.00 57 1021.7
20260502225426 51 0.0 0.0 0.00 0.00 0.00 56 1021.8
20260502224234 52 0.0 0.0 0.00 0.00 0.00 55 1021.8